Tracking 20093 objects as of 14-Dec-2019
HD Live streaming from Space Station
objects crossing your sky now

COSMOS 2251 DEB

Track COSMOS 2251 DEB now!
10-day predictions


NORAD ID: 35280
Int'l Code: 1993-036AJJ
Perigee: 701.7 km
Apogee: 796.5 km
Inclination: 74.0 °
Period: 99.7 minutes
Semi major axis: 7120 km
RCS: 0.0144 m2 (small)
Launch date: June 16, 1993
Source: Commonwealth of Independent States (former USSR) (CIS)
Launch site: PLESETSK MISSILE AND SPACE COMPLEX (PKMTR)

Note: This is SATELLITE DEBRIS
aabbcc
Your satellite tracking list
Your tracking list is empty




NASA's NSSDC Master Catalog

Two Line Element Set (TLE):
1 35280U 93036AJJ 19348.14297177  .00000312  00000-0  94886-4 0  9997
2 35280  74.0336 297.9376 0066551 203.4676 168.2852 14.45011342557539
Source of the keplerian elements: AFSPC